Flag for U.S.A. Weather past 2 weeks in Metlakatla, Alaska, U.S.A.

Now
43 °F

Overcast.


Feels Like: 41 °F
Forecast: 43 / 47 °F
Wind: 3 mph from South

Location: Metlakatla - Metlakatla Seaplane Base

Current Time: Jan 25, 2015 at 7:32:55 PM

Latest Report: Jan 25, 2015 at 6:56 PM


Visibility: 10 mi

Pressure: 29.95 "Hg

Humidity: 87%

Dew point: 39 °F

Location of MetlakatlaLocation

Historic Weather in Metlakatla — Graph

°F

Metlakatla temperature yesterday

Maximum temperature yesterday: 52 °F (at 2:56 PM)
Minimum temperature yesterday: 45 °F (at 12:56 AM)
Average temperature yesterday: 48 °F

Past Weeks' High & Low Weather Summary

 TemperatureHumidityPressure
High54 °F (Jan 14, 5:16 PM)94% (Jan 13, 3:16 PM)30.21 "Hg (Jan 13, 3:16 PM)
Low36 °F (Jan 11, 6:16 AM)44% (Jan 14, 7:56 PM)29.31 "Hg (Jan 15, 12:16 PM)
Average46 °F82%29.84 "Hg
* Reported Jan 10 6:16 PM — Jan 25 6:16 PM, Metlakatla, Weather by CustomWeather, © 2014

Note: Actual official high and low records may vary slightly from our data, if they occured in-between our weather recording intervals... More about our weather records

Advertising

Metlakatla weather history for previous 24 hours

 ConditionsComfort  
Time TempWeatherWind HumidityBarometerVisibility
6:16 PM
Jan 25
45 °FPassing clouds.3 mph81%29.94 "Hg10 mi
5:56 PM45 °FPassing clouds.5 mph76%29.94 "Hg10 mi
5:36 PM45 °FMostly cloudy.5 mph76%29.95 "Hg10 mi
5:16 PM45 °FPassing clouds.5 mph81%29.94 "Hg10 mi
4:56 PM45 °FPassing clouds.5 mph81%29.93 "Hg10 mi
4:36 PM45 °FPartly sunny.6 mph76%29.93 "Hg10 mi
3:56 PM45 °FOvercast.5 mph81%29.93 "Hg10 mi
3:36 PM45 °FOvercast.5 mph81%29.93 "Hg10 mi
3:16 PM46 °FMore clouds than sun.3 mph82%29.94 "Hg10 mi
2:36 PM46 °FMostly cloudy.5 mph82%29.94 "Hg10 mi
1:56 PM46 °FMostly cloudy.5 mph76%29.95 "Hg10 mi
1:36 PM46 °FMostly cloudy.3 mph82%29.96 "Hg10 mi
12:56 PM46 °FOvercast.5 mph82%29.93 "Hg10 mi
12:36 PM46 °FOvercast.8 mph76%29.93 "Hg10 mi
12:16 PM46 °FMostly cloudy.9 mph76%29.93 "Hg10 mi
11:56 AM45 °FOvercast.8 mph81%29.93 "Hg10 mi
11:36 AM45 °FOvercast.5 mph93%29.93 "Hg10 mi
11:16 AM46 °FOvercast.3 mph87%29.92 "Hg10 mi
10:56 AM46 °FMostly cloudy.5 mph87%29.92 "Hg10 mi
10:36 AM45 °FMostly cloudy.5 mph93%29.92 "Hg9 mi
10:16 AM45 °FMostly cloudy.3 mph93%29.92 "Hg10 mi
9:56 AM45 °FMostly cloudy.5 mph93%29.92 "Hg8 mi
9:36 AM45 °FOvercast.5 mph93%29.92 "Hg6 mi
9:16 AM46 °FMostly cloudy.5 mph87%29.90 "Hg6 mi
8:56 AM46 °FMostly cloudy.5 mph87%29.90 "Hg7 mi
8:36 AM46 °FOvercast.6 mph87%29.90 "Hg10 mi
8:16 AM46 °FPassing clouds.6 mph87%29.89 "Hg10 mi
7:56 AM46 °FPartly cloudy.8 mph87%29.89 "Hg10 mi
7:36 AM46 °FMostly cloudy.6 mph87%29.89 "Hg10 mi
7:16 AM46 °FMostly cloudy.6 mph87%29.89 "Hg10 mi
6:56 AM46 °FMostly cloudy.3 mph87%29.89 "Hg10 mi
6:36 AM46 °FMostly cloudy.6 mph82%29.88 "Hg10 mi
6:16 AM46 °FMostly cloudy.7 mph82%29.88 "Hg10 mi
5:56 AM46 °FPartly cloudy.7 mph76%29.87 "Hg10 mi
5:36 AM46 °FPassing clouds.6 mph82%29.86 "Hg10 mi
5:16 AM46 °FPassing clouds.6 mph82%29.85 "Hg10 mi
4:56 AM46 °FMostly cloudy.6 mph82%29.86 "Hg10 mi
4:36 AM46 °FMostly cloudy.7 mph76%29.85 "Hg10 mi
3:56 AM46 °FMostly cloudy.8 mph82%29.84 "Hg10 mi
3:36 AM46 °FMostly cloudy.8 mph76%29.83 "Hg10 mi
3:16 AM46 °FOvercast.9 mph76%29.82 "Hg10 mi
2:56 AM46 °FMostly cloudy.13 mph76%29.80 "Hg10 mi
2:36 AM46 °FMostly cloudy.12 mph76%29.78 "Hg10 mi
2:16 AM46 °FMostly cloudy.14 mph76%29.77 "Hg10 mi
1:56 AM46 °FMostly cloudy.18 mph76%29.74 "Hg10 mi
1:36 AM48 °FMostly cloudy.25 mph71%29.71 "Hg10 mi
1:16 AM48 °FMostly cloudy.23 mph71%29.70 "Hg10 mi
12:56 AM48 °FOvercast.25 mph71%29.68 "Hg10 mi
12:36 AM48 °FOvercast.18 mph66%29.67 "Hg10 mi
12:16 AM46 °FOvercast.13 mph76%29.65 "Hg10 mi
11:56 PM
Jan 24
46 °FMostly cloudy.15 mph76%29.62 "Hg10 mi
11:36 PM46 °FMostly cloudy.17 mph82%29.60 "Hg7 mi
11:16 PM46 °FOvercast.21 mph76%29.57 "Hg5 mi
10:56 PM46 °FMostly cloudy.18 mph82%29.54 "Hg8 mi
10:36 PM46 °FOvercast.15 mph87%29.52 "Hg6 mi
10:16 PM46 °FPartly cloudy.15 mph87%29.51 "Hg5 mi
9:56 PM46 °FMostly cloudy.20 mph87%29.49 "Hg4 mi
9:36 PM46 °FPartly cloudy.18 mph82%29.47 "Hg5 mi
9:16 PM46 °FPartly cloudy.16 mph87%29.45 "Hg5 mi
8:56 PM48 °FOvercast.14 mph76%29.43 "Hg10 mi
8:16 PM50 °FMostly cloudy.12 mph76%29.40 "Hg10 mi
7:36 PM52 °FOvercast.14 mph72%29.37 "Hg10 mi
Weather by CustomWeather, © 2014

See weather overviewHow to use our weather pages